Location: Amberg
(48.0613°N, 10.6820°E)
Time: 21:28:47
(UTC+00:00)

SAR-Lupe-4 - Pass Details

Date: 18 November 2025
Orbit: 476 x 483 km, 98.1° (Epoch: 03 October)

Event Time Altitude Azimuth Distance (km) Brightness Sun altitude
Rises 16:14:23 0° 150° (SSE) 2,535 7.1 -6.6°
Reaches altitude 10° 16:16:29 10° 144° (SE) 1,659 6.1 -7.0°
Maximum altitude 16:19:53 45° 71° (ENE) 668 3.8 -7.5°
Drops below altitude 10° 16:23:20 10° 358° (N) 1,670 6.1 -8.0°
Sets 16:25:27 0° 352° (N) 2,554 7.1 -8.4°
